Location: Arbon
(43.0005°N, 0.7472°E)
Time: 19:23:22
(UTC+00:00)

Cosmos 2151 Rocket - Pass Details

Date: 07 August 2020
Orbit: 618 x 641 km, 82.5° (Epoch: 24 September)

Event Time Altitude Azimuth Distance (km) Brightness Sun altitude
Exits shadow 01:12:29 48° 26° (NNE) 817 4.4 -28.5°
Drops below altitude 10° 01:15:45 10° 12° (NNE) 1,998 7.1 -28.3°
Sets 01:17:59 0° 11° (N) 2,907 8.2 -28.2°
